Location: Monfort
(47.1967°N, 0.2115°W)
Time: 11:43:08
(UTC+00:00)

YAOGAN 1 - Pass Details

Date: 24 October 2020
Orbit: 618 x 620 km, 97.9° (Epoch: 27 November)

Event Time Altitude Azimuth Distance (km) Brightness Sun altitude
Rises 19:01:39 0° 180° (S) 2,884 5.9 -21.8°
Reaches altitude 10° 19:03:54 10° 186° (S) 1,983 5.1 -22.2°
Maximum altitude 19:08:04 47° 260° (W) 823 3.5 -22.9°
Drops below altitude 10° 19:12:16 10° 336° (NNW) 1,999 5.5 -23.6°
Sets 19:14:33 0° 342° (NNW) 2,910 6.4 -24.0°
